Weather History for Resistencia, Argentina

Change the Weather History Date:

Monday, March 25, 2013

  Actual Average Record
Temperature  
Mean Temperature 74 °F -  
Max Temperature 86 °F 78 °F 96 °F (2008)
Min Temperature 62 °F 61 °F -5 °F (2003)
Cooling Degree Days 9    
Growing Degree Days 24 (Base 50)    
Moisture  
Dew Point 66 °F    
Average Humidity 75    
Maximum Humidity 94    
Minimum Humidity 38    
Precipitation  
Precipitation 0.00 in - - ()
Sea Level Pressure  
Sea Level Pressure 29.87 in    
Wind  
Wind Speed 3 mph ()    
Max Wind Speed 7 mph    
Max Gust Speed -    
Visibility 6.5 miles    
Events      
Averages and records for this station are not official NWS values.
T = Trace of Precipitation, MM = Missing Value Source: Averaged Metar Reports

Daily Weather History Graph

Daily Weather History Graph

Search for Another Location

Airport:

Trip Planner

Search our weather history database for the weather conditions in past years. The results will help you decide how hot, cold, wet, or windy it might be!

Date:

Astronomy

Mar. 25, 2013 Rise Set
Actual Time 7:02 AM ART 7:01 PM ART
Civil Twilight 6:39 AM ART 7:24 PM ART
Nautical Twilight 6:12 AM ART 7:51 PM ART
Astronomical Twilight 5:44 AM ART 8:18 PM ART
Moon 5:47 PM ART (3/25) 5:11 AM ART (3/25)
Length of Visible Light 12h 45m
Length of Day
11h 58m
Waxing Gibbous, 96% of the Moon is Illuminated
Mar 25
Waxing Gibbous
Mar 27
Full
Apr 3
Last Quarter
Apr 10
New
Apr 18
First Quarter

Hourly Weather History & Observations

Time (ART) Temp. Heat Index Dew Point Humidity Pressure Visibility Wind Dir Wind Speed Gust Speed Precip Events Conditions
12:00 AM 71.6 °F - 68.0 °F 88% 29.80 in - East 3.5 mph - N/A   Clear
1:00 AM 69.8 °F - 68.0 °F 94% 29.80 in - East 2.3 mph - N/A   Clear
2:00 AM 69.8 °F - 66.2 °F 88% 29.80 in - East 2.3 mph - N/A   Clear
3:00 AM 68 °F - 66 °F 92% 29.79 in 9 mi East 3.5 mph - -  
3:00 AM 68.0 °F - 66.2 °F 94% 29.80 in - East 3.5 mph - N/A   Clear
4:00 AM 68.0 °F - 66.2 °F 94% 29.80 in - East 3.5 mph - N/A   Clear
5:00 AM 68.0 °F - 66.2 °F 94% 29.80 in - Calm Calm - N/A   Clear
6:00 AM 64.4 °F - 62.6 °F 94% 29.80 in - Calm Calm - N/A   Clear
7:00 AM 64.4 °F - 62.6 °F 94% 29.83 in 5.0 mi Calm Calm - N/A   Unknown
8:00 AM 68.0 °F - 66.2 °F 94% 29.83 in 5.0 mi SE 2.3 mph - N/A   Unknown
9:00 AM 74 °F - 66 °F 68% 29.86 in 6 mi East 3.5 mph - -   Smoke
9:00 AM 73.4 °F - 66.2 °F 78% 29.86 in - East 3.5 mph - N/A   Clear
10:00 AM 77.0 °F - 66.2 °F 69% 29.89 in - ENE 3.5 mph - N/A   Clear
11:00 AM 78.8 °F - 66.2 °F 65% 29.92 in - NE 2.3 mph - N/A   Clear
12:00 PM 80.6 °F 82.3 °F 64.4 °F 58% 29.92 in 6.2 mi NW 2.3 mph - N/A   Scattered Clouds
1:00 PM 82.4 °F 83.9 °F 64.4 °F 54% 29.92 in 6.2 mi NW 2.3 mph - N/A   Scattered Clouds
2:00 PM 84.2 °F 86.6 °F 66.2 °F 55% 29.89 in 6.2 mi SSW 6.9 mph - N/A   Scattered Clouds
3:00 PM 85 °F - 63 °F 38% 29.87 in 9 mi SSW 6.9 mph - -   Partly Cloudy
3:00 PM 84.2 °F 85.0 °F 62.6 °F 48% 29.86 in 6.2 mi SSW 6.9 mph - N/A   Scattered Clouds
4:00 PM 84.2 °F 85.6 °F 64.4 °F 51% 29.86 in 6.2 mi South 6.9 mph - N/A   Scattered Clouds
5:00 PM 84.2 °F 85.6 °F 64.4 °F 51% 29.89 in 6.2 mi SSW 3.5 mph - N/A   Mostly Cloudy
5:30 PM 84.2 °F 85.6 °F 64.4 °F 51% 29.89 in 6.2 mi SSW 4.6 mph - N/A   Mostly Cloudy
6:00 PM 80.6 °F 82.7 °F 66.2 °F 61% 29.89 in 6.2 mi SSW 3.5 mph - N/A   Mostly Cloudy
7:00 PM 78.8 °F - 69.8 °F 74% 29.89 in 6.2 mi South 2.3 mph - N/A   Mostly Cloudy
8:00 PM 75.2 °F - 68.0 °F 78% 29.92 in 6.2 mi South 1.2 mph - N/A   Mostly Cloudy
9:00 PM 74 °F - 69 °F 80% 29.94 in 9 mi South 1.2 mph - -   Partly Cloudy
9:00 PM 75.2 °F - 69.8 °F 83% 29.95 in 6.2 mi South 1.2 mph - N/A   Mostly Cloudy
10:00 PM 71.6 °F - 68.0 °F 88% 29.95 in 6.2 mi South 1.2 mph - N/A   Mostly Cloudy
11:00 PM 71.6 °F - 68.0 °F 88% 29.98 in 6.2 mi South 1.2 mph - N/A   Overcast